QPF
0.04 0.02 0.01 0.02 0.04 0.03 0.04 0.06 0.05 0.05 0.08 0.08 0.07 0.06 0.08 0.11 0.10 0.09 0.10 0.09 0.08 0.09 0.13 0.12 0.11 0.11 0.12 0.11 0.11 0.09 0.11 0.16 0.18 0.12 0.10 0.09 0.10 0.10 0.09 0.09 0.12 0.19 0.15
0.03 0.02 0.01 0.02 0.03 0.02 0.03 0.04 0.05 0.06 0.08 0.08 0.06 0.05 0.07 0.08 0.08 0.08 0.09 0.09 0.08 0.09 0.10 0.12 0.12 0.11 0.09 0.09 0.12 0.12 0.11 0.13 0.15 0.14 0.14 0.17 0.22 0.21 0.12 0.11 0.16 0.20 0.13
0.02 0.02 0.02 0.02 0.02 0.02 0.04 0.04 0.04 0.04 0.04 0.05 0.06 0.05 0.07 0.07 0.06 0.07 0.07 0.07 0.07 0.07 0.08 0.09 0.10 0.10 0.09 0.08 0.10 0.11 0.12 0.11 0.16 0.18 0.15 0.18 0.25 0.31 0.20 0.14 0.11 0.13 0.14
0.02 0.02 0.01 0.02 0.02 0.02 0.04 0.03 0.04 0.03 0.03 0.04 0.05 0.06 0.07 0.07 0.06 0.07 0.09 0.09 0.08 0.06 0.06 0.09 0.08 0.09 0.10 0.09 0.08 0.08 0.11 0.11 0.13 0.14 0.14 0.15 0.21 0.26 0.21 0.15 0.12 0.15 0.18
0.02 0.03 0.02 0.02 0.02 0.02 0.04 0.04 0.04 0.03 0.03 0.05 0.06 0.06 0.07 0.09 0.09 0.08 0.08 0.09 0.09 0.08 0.10 0.11 0.10 0.09 0.10 0.08 0.08 0.08 0.09 0.10 0.11 0.12 0.18 0.22 0.25 0.25 0.19 0.15 0.14 0.14 0.18
0.02 0.02 0.02 0.02 0.02 0.02 0.02 0.02 0.03 0.03 0.02 0.03 0.05 0.05 0.07 0.09 0.10 0.09 0.07 0.07 0.08 0.09 0.17 0.20 0.15 0.12 0.12 0.12 0.11 0.11 0.11 0.11 0.09 0.11 0.14 0.20 0.21 0.20 0.19 0.17 0.15 0.17 0.21
0.02 0.02 0.02 0.03 0.04 0.04 0.04 0.03 0.03 0.03 0.03 0.02 0.03 0.04 0.04 0.05 0.07 0.08 0.09 0.08 0.07 0.10 0.24 0.36 0.38 0.32 0.24 0.20 0.21 0.21 0.15 0.11 0.10 0.10 0.12 0.17 0.18 0.16 0.15 0.13 0.13 0.17 0.20
0.02 0.02 0.02 0.02 0.03 0.02 0.03 0.03 0.03 0.03 0.02 0.02 0.02 0.03 0.04 0.05 0.07 0.07 0.08 0.09 0.09 0.11 0.15 0.22 0.31 0.40 0.36 0.33 0.33 0.24 0.15 0.09 0.10 0.11 0.13 0.18 0.18 0.16 0.12 0.08 0.10 0.13 0.14
0.02 0.01 0.02 0.02 0.02 0.02 0.02 0.02 0.02 0.02 0.01 0.02 0.02 0.02 0.03 0.02 0.03 0.05 0.06 0.06 0.09 0.10 0.10 0.11 0.18 0.28 0.35 0.39 0.30 0.17 0.12 0.08 0.07 0.08 0.09 0.14 0.18 0.17 0.15 0.10 0.10 0.11 0.12
0.00 0.00 0.01 0.01 0.02 0.02 0.02 0.01 0.01 0.01 0.01 0.02 0.02 0.01 0.01 0.02 0.02 0.03 0.03 0.05 0.10 0.09 0.08 0.07 0.10 0.16 0.24 0.27 0.20 0.19 0.17 0.11 0.07 0.07 0.09 0.14 0.16 0.15 0.15 0.14 0.11 0.11 0.11
0.01 0.00 0.00 0.00 0.01 0.02 0.01 0.00 0.01 0.01 0.01 0.01 0.01 0.01 0.01 0.02 0.01 0.01 0.01 0.03 0.11 0.12 0.09 0.07 0.05 0.07 0.12 0.14 0.13 0.16 0.18 0.19 0.15 0.13 0.12 0.13 0.14 0.14 0.14 0.12 0.10 0.10 0.10
0.02 0.01 0.00 0.01 0.01 0.01 0.00 0.01 0.01 0.01 0.01 0.00 0.00 0.01 0.01 0.01 0.01 0.01 0.01 0.02 0.04 0.08 0.05 0.04 0.03 0.05 0.07 0.09 0.09 0.09 0.09 0.11 0.12 0.13 0.14 0.14 0.15 0.15 0.13 0.12 0.12 0.12 0.11
0.02 0.01 0.01 0.01 0.01 0.02 0.01 0.01 0.01 0.01 0.01 0.00 0.00 0.01 0.01 0.01 0.00 0.01 0.01 0.01 0.02 0.04 0.04 0.04 0.03 0.03 0.03 0.04 0.05 0.09 0.10 0.11 0.11 0.13 0.13 0.14 0.15 0.17 0.16 0.14 0.14 0.15 0.14
0.01 0.01 0.01 0.00 0.00 0.01 0.01 0.01 0.00 0.00 0.01 0.01 0.00 0.00 0.00 0.00 0.00 0.01 0.01 0.02 0.03 0.03 0.04 0.04 0.04 0.03 0.03 0.03 0.03 0.04 0.06 0.08 0.08 0.09 0.11 0.14 0.16 0.18 0.15 0.12 0.11 0.10 0.09
0.01 0.01 0.00 0.00 0.00 0.00 0.00 0.00 0.00 0.00 0.01 0.01 0.00 0.00 0.00 0.00 0.00 0.00 0.00 0.01 0.02 0.02 0.02 0.02 0.02 0.03 0.04 0.03 0.03 0.04 0.03 0.03 0.05 0.05 0.05 0.06 0.09 0.11 0.10 0.09 0.07 0.06 0.06
0.00 0.00 0.00 0.00 0.00 0.00 0.00 0.00 0.00 0.00 0.00 0.01 0.01 0.01 0.00 0.00 0.00 0.00 0.00 0.00 0.01 0.01 0.01 0.01 0.01 0.01 0.02 0.03 0.03 0.04 0.04 0.04 0.04 0.04 0.03 0.02 0.02 0.03 0.06 0.07 0.05 0.04 0.05
0.00 0.00 0.00 0.00 0.00 0.00 0.00 0.00 0.00 0.00 0.01 0.00 0.00 0.00 0.00 0.00 0.00 0.00 0.00 0.01 0.01 0.01 0.01 0.01 0.02 0.01 0.01 0.02 0.03 0.03 0.03 0.04 0.04 0.03 0.02 0.02 0.01 0.02 0.03 0.04 0.04 0.03 0.04
0.00 0.00 0.00 0.00 0.00 0.00 0.00 0.00 0.00 0.01 0.00 0.00 0.00 0.00 0.00 0.00 0.00 0.00 0.01 0.01 0.01 0.01 0.01 0.01 0.01 0.02 0.02 0.02 0.01 0.02 0.01 0.02 0.03 0.03 0.02 0.03 0.02 0.02 0.02 0.03 0.03 0.03 0.03
0.00 0.00 0.00 0.00 0.01 0.01 0.00 0.00 0.00 0.00 0.00 0.00 0.00 0.00 0.00 0.00 0.00 0.00 0.00 0.01 0.00 0.01 0.01 0.00 0.01 0.01 0.01 0.01 0.01 0.01 0.01 0.01 0.02 0.03 0.02 0.02 0.02 0.02 0.02 0.03 0.03 0.03 0.04
0.00 0.00 0.00 0.01 0.01 0.01 0.00 0.00 0.00 0.00 0.00 0.00 0.00 0.00 0.00 0.00 0.00 0.00 0.00 0.00 0.00 0.01 0.01 0.01 0.01 0.02 0.01 0.01 0.01 0.01 0.01 0.02 0.03 0.04 0.04 0.03 0.03 0.02 0.02 0.02 0.03 0.03 0.04
0.00 0.00 0.00 0.00 0.00 0.00 0.00 0.00 0.00 0.00 0.00 0.00 0.00 0.00 0.00 0.00 0.00 0.00 0.01 0.01 0.01 0.00 0.00 0.01 0.01 0.01 0.01 0.01 0.01 0.01 0.01 0.02 0.03 0.04 0.04 0.04 0.03 0.03 0.04 0.04 0.05 0.05 0.05
0.00 0.00 0.00 0.00 0.00 0.01 0.00 0.00 0.00 0.00 0.00 0.00 0.00 0.00 0.00 0.00 0.00 0.00 0.00 0.01 0.01 0.01 0.01 0.00 0.01 0.01 0.01 0.01 0.01 0.02 0.02 0.02 0.02 0.03 0.04 0.04 0.04 0.04 0.05 0.06 0.05 0.05 0.06
0.01 0.00 0.00 0.00 0.00 0.00 0.00 0.00 0.00 0.00 0.00 0.00 0.00 0.00 0.00 0.00 0.00 0.00 0.00 0.00 0.00 0.00 0.01 0.01 0.01 0.01 0.01 0.01 0.01 0.02 0.03 0.03 0.03 0.02 0.03 0.03 0.04 0.04 0.04 0.04 0.03 0.02 0.03
0.02 0.01 0.01 0.00 0.00 0.00 0.00 0.00 0.00 0.01 0.01 0.01 0.01 0.01 0.00 0.00 0.00 0.00 0.00 0.00 0.00 0.00 0.01 0.01 0.00 0.01 0.01 0.01 0.01 0.01 0.02 0.03 0.03 0.03 0.02 0.02 0.02 0.03 0.03 0.02 0.02 0.01 0.02
0.03 0.03 0.02 0.02 0.01 0.00 0.00 0.01 0.01 0.01 0.01 0.01 0.01 0.01 0.00 0.00 0.00 0.00 0.00 0.00 0.00 0.01 0.01 0.01 0.01 0.01 0.01 0.01 0.02 0.01 0.01 0.02 0.02 0.02 0.02 0.02 0.02 0.02 0.02 0.02 0.02 0.01 0.01
0.02 0.03 0.03 0.03 0.04 0.01 0.01 0.00 0.00 0.00 0.01 0.01 0.01 0.01 0.01 0.00 0.00 0.00 0.01 0.01 0.01 0.02 0.01 0.01 0.01 0.02 0.01 0.01 0.02 0.02 0.02 0.02 0.02 0.02 0.02 0.02 0.03 0.02 0.02 0.02 0.02 0.01 0.01
MSLP
1012.34 1012.00 1011.70 1011.50 1011.39 1011.36 1011.38 1011.40 1011.40 1011.36 1011.31 1011.26 1011.25 1011.31 1011.44 1011.62 1011.83 1012.04 1012.22 1012.37 1012.47 1012.56 1012.66 1012.79 1012.96 1013.16 1013.38 1013.61 1013.82 1013.99 1014.13 1014.24 1014.33 1014.42 1014.53 1014.65 1014.79 1014.93 1015.07 1015.20 1015.33 1015.44 1015.54
1012.41 1012.09 1011.84 1011.69 1011.64 1011.66 1011.70 1011.73 1011.72 1011.65 1011.57 1011.49 1011.48 1011.55 1011.71 1011.93 1012.19 1012.44 1012.65 1012.80 1012.89 1012.96 1013.03 1013.12 1013.25 1013.43 1013.63 1013.84 1014.04 1014.20 1014.33 1014.43 1014.52 1014.61 1014.71 1014.83 1014.97 1015.11 1015.25 1015.37 1015.48 1015.58 1015.67
1012.44 1012.17 1011.96 1011.87 1011.88 1011.95 1012.04 1012.09 1012.07 1012.00 1011.89 1011.80 1011.77 1011.84 1012.00 1012.23 1012.50 1012.76 1012.97 1013.11 1013.19 1013.24 1013.28 1013.34 1013.46 1013.61 1013.81 1014.01 1014.20 1014.35 1014.47 1014.57 1014.66 1014.75 1014.86 1014.99 1015.13 1015.28 1015.42 1015.54 1015.64 1015.72 1015.80
1012.39 1012.16 1012.02 1012.00 1012.08 1012.21 1012.35 1012.43 1012.44 1012.36 1012.25 1012.15 1012.11 1012.16 1012.31 1012.53 1012.78 1013.02 1013.20 1013.32 1013.37 1013.40 1013.42 1013.48 1013.59 1013.75 1013.95 1014.15 1014.34 1014.49 1014.62 1014.71 1014.80 1014.90 1015.01 1015.15 1015.30 1015.45 1015.59 1015.70 1015.79 1015.86 1015.93
1012.22 1012.05 1011.98 1012.03 1012.19 1012.40 1012.60 1012.73 1012.76 1012.71 1012.60 1012.50 1012.45 1012.49 1012.61 1012.81 1013.02 1013.22 1013.37 1013.45 1013.47 1013.48 1013.50 1013.57 1013.70 1013.88 1014.10 1014.32 1014.53 1014.69 1014.81 1014.91 1015.00 1015.09 1015.21 1015.34 1015.49 1015.64 1015.77 1015.87 1015.95 1016.01 1016.06
1011.96 1011.84 1011.84 1011.98 1012.22 1012.50 1012.75 1012.93 1013.00 1012.97 1012.88 1012.79 1012.74 1012.77 1012.88 1013.04 1013.22 1013.38 1013.48 1013.53 1013.54 1013.54 1013.58 1013.67 1013.83 1014.06 1014.32 1014.57 1014.80 1014.98 1015.11 1015.21 1015.29 1015.37 1015.48 1015.60 1015.73 1015.85 1015.96 1016.04 1016.10 1016.14 1016.18
1011.63 1011.58 1011.65 1011.86 1012.17 1012.50 1012.80 1013.01 1013.11 1013.11 1013.05 1012.98 1012.94 1012.98 1013.08 1013.23 1013.38 1013.50 1013.57 1013.60 1013.60 1013.61 1013.67 1013.81 1014.02 1014.30 1014.61 1014.91 1015.17 1015.37 1015.51 1015.61 1015.68 1015.74 1015.82 1015.92 1016.02 1016.11 1016.18 1016.22 1016.24 1016.25 1016.27
1011.33 1011.32 1011.46 1011.73 1012.08 1012.45 1012.77 1013.00 1013.11 1013.12 1013.08 1013.03 1013.03 1013.08 1013.20 1013.34 1013.48 1013.59 1013.64 1013.66 1013.66 1013.69 1013.79 1013.98 1014.26 1014.60 1014.97 1015.32 1015.62 1015.84 1015.99 1016.08 1016.13 1016.18 1016.23 1016.29 1016.34 1016.39 1016.42 1016.41 1016.39 1016.36 1016.33
1011.11 1011.15 1011.33 1011.64 1012.01 1012.39 1012.70 1012.91 1013.01 1013.03 1013.00 1012.98 1013.00 1013.09 1013.23 1013.39 1013.53 1013.64 1013.70 1013.72 1013.74 1013.80 1013.93 1014.17 1014.50 1014.90 1015.33 1015.72 1016.05 1016.30 1016.46 1016.55 1016.59 1016.62 1016.64 1016.66 1016.68 1016.69 1016.66 1016.61 1016.54 1016.46 1016.40
1011.02 1011.11 1011.33 1011.66 1012.03 1012.38 1012.66 1012.83 1012.90 1012.89 1012.86 1012.85 1012.90 1013.02 1013.19 1013.38 1013.55 1013.67 1013.74 1013.77 1013.81 1013.90 1014.07 1014.34 1014.72 1015.16 1015.62 1016.05 1016.41 1016.67 1016.84 1016.93 1016.97 1016.99 1017.00 1017.01 1017.00 1016.98 1016.92 1016.83 1016.72 1016.61 1016.51
1011.08 1011.21 1011.46 1011.79 1012.14 1012.45 1012.68 1012.79 1012.81 1012.77 1012.73 1012.72 1012.79 1012.94 1013.14 1013.35 1013.54 1013.69 1013.77 1013.82 1013.88 1013.98 1014.18 1014.48 1014.87 1015.33 1015.81 1016.25 1016.62 1016.89 1017.07 1017.17 1017.22 1017.25 1017.26 1017.27 1017.27 1017.24 1017.18 1017.08 1016.95 1016.81 1016.68
1011.25 1011.42 1011.69 1012.02 1012.35 1012.62 1012.78 1012.83 1012.80 1012.72 1012.65 1012.64 1012.72 1012.88 1013.09 1013.33 1013.54 1013.70 1013.81 1013.88 1013.95 1014.07 1014.27 1014.57 1014.96 1015.41 1015.88 1016.32 1016.68 1016.95 1017.14 1017.25 1017.32 1017.37 1017.42 1017.45 1017.48 1017.48 1017.44 1017.35 1017.23 1017.09 1016.95
1011.46 1011.68 1011.97 1012.30 1012.60 1012.83 1012.94 1012.95 1012.87 1012.76 1012.66 1012.64 1012.71 1012.87 1013.09 1013.34 1013.56 1013.74 1013.86 1013.94 1014.03 1014.16 1014.36 1014.65 1015.02 1015.45 1015.88 1016.29 1016.63 1016.89 1017.08 1017.21 1017.30 1017.39 1017.47 1017.56 1017.64 1017.69 1017.69 1017.65 1017.56 1017.44 1017.30
1011.65 1011.90 1012.21 1012.54 1012.83 1013.04 1013.13 1013.11 1013.01 1012.88 1012.77 1012.73 1012.79 1012.93 1013.14 1013.38 1013.61 1013.80 1013.93 1014.04 1014.15 1014.29 1014.49 1014.76 1015.10 1015.49 1015.88 1016.24 1016.55 1016.79 1016.97 1017.11 1017.23 1017.35 1017.48 1017.62 1017.76 1017.87 1017.94 1017.95 1017.91 1017.83 1017.72
1011.76 1012.03 1012.35 1012.69 1012.99 1013.19 1013.29 1013.27 1013.18 1013.05 1012.95 1012.90 1012.93 1013.06 1013.24 1013.47 1013.69 1013.88 1014.04 1014.18 1014.31 1014.47 1014.68 1014.94 1015.26 1015.60 1015.95 1016.27 1016.53 1016.75 1016.92 1017.05 1017.19 1017.33 1017.50 1017.68 1017.86 1018.03 1018.16 1018.24 1018.26 1018.22 1018.15
1011.76 1012.04 1012.37 1012.71 1013.01 1013.24 1013.37 1013.40 1013.34 1013.25 1013.16 1013.11 1013.13 1013.22 1013.37 1013.57 1013.78 1013.98 1014.17 1014.34 1014.52 1014.71 1014.94 1015.21 1015.51 1015.83 1016.14 1016.41 1016.65 1016.84 1016.99 1017.12 1017.25 1017.40 1017.57 1017.77 1017.98 1018.18 1018.35 1018.48 1018.55 1018.57 1018.54
1011.67 1011.94 1012.26 1012.60 1012.92 1013.19 1013.37 1013.46 1013.48 1013.44 1013.38 1013.34 1013.34 1013.40 1013.52 1013.68 1013.88 1014.08 1014.30 1014.52 1014.74 1014.99 1015.25 1015.55 1015.85 1016.16 1016.45 1016.70 1016.91 1017.08 1017.21 1017.33 1017.45 1017.58 1017.74 1017.92 1018.12 1018.32 1018.50 1018.65 1018.76 1018.83 1018.85
1011.54 1011.78 1012.07 1012.41 1012.74 1013.05 1013.30 1013.48 1013.58 1013.61 1013.60 1013.57 1013.57 1013.59 1013.67 1013.80 1013.97 1014.18 1014.41 1014.68 1014.96 1015.25 1015.57 1015.89 1016.22 1016.53 1016.82 1017.07 1017.28 1017.44 1017.57 1017.68 1017.77 1017.88 1017.99 1018.13 1018.28 1018.44 1018.60 1018.75 1018.89 1018.99 1019.07
1011.41 1011.61 1011.87 1012.19 1012.53 1012.88 1013.20 1013.46 1013.65 1013.76 1013.81 1013.81 1013.79 1013.79 1013.83 1013.92 1014.06 1014.26 1014.51 1014.81 1015.13 1015.48 1015.84 1016.20 1016.55 1016.89 1017.19 1017.46 1017.68 1017.85 1017.99 1018.09 1018.17 1018.23 1018.29 1018.36 1018.44 1018.55 1018.67 1018.80 1018.94 1019.08 1019.20
1011.32 1011.48 1011.70 1011.99 1012.34 1012.72 1013.11 1013.45 1013.73 1013.92 1014.02 1014.05 1014.04 1014.01 1014.01 1014.06 1014.17 1014.35 1014.60 1014.91 1015.26 1015.64 1016.03 1016.41 1016.79 1017.14 1017.47 1017.76 1018.01 1018.21 1018.37 1018.48 1018.55 1018.58 1018.59 1018.60 1018.61 1018.64 1018.71 1018.82 1018.96 1019.13 1019.30
1011.25 1011.40 1011.59 1011.85 1012.20 1012.61 1013.04 1013.45 1013.81 1014.08 1014.24 1014.31 1014.30 1014.27 1014.23 1014.24 1014.31 1014.47 1014.70 1015.00 1015.35 1015.73 1016.12 1016.51 1016.89 1017.25 1017.60 1017.92 1018.21 1018.45 1018.65 1018.78 1018.86 1018.88 1018.85 1018.80 1018.76 1018.73 1018.76 1018.84 1018.99 1019.18 1019.40
1011.20 1011.34 1011.52 1011.77 1012.11 1012.53 1013.00 1013.47 1013.90 1014.23 1014.46 1014.57 1014.58 1014.54 1014.49 1014.47 1014.51 1014.63 1014.83 1015.10 1015.42 1015.77 1016.14 1016.50 1016.87 1017.22 1017.57 1017.91 1018.23 1018.52 1018.76 1018.94 1019.04 1019.07 1019.04 1018.97 1018.88 1018.82 1018.82 1018.89 1019.04 1019.26 1019.53
1011.11 1011.27 1011.45 1011.69 1012.03 1012.46 1012.96 1013.48 1013.96 1014.36 1014.64 1014.79 1014.84 1014.82 1014.76 1014.73 1014.74 1014.83 1014.99 1015.22 1015.50 1015.80 1016.12 1016.44 1016.76 1017.09 1017.42 1017.76 1018.11 1018.43 1018.72 1018.94 1019.09 1019.15 1019.14 1019.07 1018.99 1018.92 1018.91 1018.98 1019.15 1019.40 1019.70
1010.93 1011.14 1011.34 1011.59 1011.93 1012.36 1012.88 1013.43 1013.95 1014.40 1014.74 1014.95 1015.04 1015.04 1015.01 1014.98 1014.99 1015.05 1015.19 1015.37 1015.60 1015.85 1016.10 1016.36 1016.63 1016.91 1017.21 1017.54 1017.89 1018.24 1018.56 1018.83 1019.03 1019.14 1019.17 1019.13 1019.07 1019.02 1019.02 1019.11 1019.29 1019.56 1019.89
1010.63 1010.91 1011.14 1011.41 1011.75 1012.19 1012.72 1013.28 1013.84 1014.33 1014.72 1014.98 1015.12 1015.17 1015.17 1015.16 1015.18 1015.25 1015.37 1015.53 1015.72 1015.92 1016.12 1016.32 1016.52 1016.75 1017.01 1017.31 1017.65 1018.00 1018.35 1018.66 1018.91 1019.07 1019.15 1019.16 1019.14 1019.12 1019.15 1019.25 1019.44 1019.71 1020.05
1010.23 1010.57 1010.85 1011.14 1011.49 1011.93 1012.46 1013.03 1013.60 1014.12 1014.54 1014.85 1015.04 1015.14 1015.19 1015.23 1015.28 1015.36 1015.49 1015.65 1015.82 1015.99 1016.15 1016.31 1016.47 1016.65 1016.86 1017.13 1017.45 1017.79 1018.15 1018.48 1018.77 1018.98 1019.11 1019.18 1019.20 1019.22 1019.27 1019.37 1019.56 1019.83 1020.15
Thickness
5775 5775 5774 5774 5774 5774 5774 5774 5775 5775 5775 5775 5775 5775 5776 5776 5776 5776 5777 5778 5778 5779 5779 5779 5778 5778 5778 5778 5778 5777 5777 5777 5776 5776 5775 5775 5775 5775 5776 5775 5775 5774 5774
5777 5774 5772 5772 5772 5772 5772 5772 5772 5772 5773 5773 5773 5773 5773 5773 5773 5773 5773 5774 5775 5776 5776 5776 5776 5776 5776 5775 5775 5775 5775 5774 5774 5774 5774 5773 5774 5774 5775 5774 5773 5772 5772
5777 5773 5771 5770 5770 5770 5770 5770 5770 5770 5770 5770 5770 5770 5770 5770 5770 5771 5771 5771 5772 5772 5773 5773 5773 5773 5773 5773 5773 5773 5773 5772 5772 5772 5771 5771 5772 5771 5771 5771 5770 5770 5770
5776 5772 5769 5768 5767 5767 5767 5767 5767 5767 5767 5768 5768 5767 5767 5767 5768 5768 5768 5768 5768 5769 5770 5770 5770 5770 5770 5770 5770 5770 5770 5770 5770 5770 5769 5770 5769 5768 5768 5768 5767 5767 5767
5774 5769 5766 5766 5765 5765 5765 5764 5765 5765 5765 5765 5765 5765 5765 5765 5765 5765 5765 5765 5765 5766 5766 5766 5766 5766 5767 5767 5767 5767 5768 5768 5768 5767 5767 5766 5766 5766 5766 5766 5765 5765 5764
5771 5768 5764 5764 5763 5762 5762 5762 5762 5762 5762 5762 5762 5762 5762 5762 5762 5762 5762 5762 5762 5762 5762 5762 5762 5763 5763 5764 5764 5764 5765 5765 5765 5764 5764 5763 5763 5763 5763 5763 5762 5762 5761
5770 5767 5763 5762 5761 5760 5760 5759 5759 5759 5759 5759 5759 5758 5758 5759 5759 5759 5759 5759 5759 5759 5759 5759 5759 5760 5760 5760 5760 5761 5761 5762 5762 5761 5760 5760 5760 5760 5760 5760 5759 5759 5758
5769 5766 5762 5760 5759 5758 5757 5757 5756 5756 5756 5756 5756 5755 5755 5755 5755 5755 5755 5756 5756 5756 5755 5756 5757 5757 5757 5757 5757 5757 5759 5759 5759 5759 5758 5757 5757 5757 5757 5757 5756 5756 5755
5769 5766 5762 5759 5757 5756 5755 5754 5754 5754 5754 5753 5753 5753 5753 5753 5752 5752 5752 5753 5752 5752 5752 5752 5753 5753 5753 5753 5754 5755 5756 5757 5756 5755 5755 5754 5754 5753 5753 5753 5753 5752 5752
5767 5766 5764 5761 5758 5756 5754 5753 5752 5752 5752 5752 5752 5751 5751 5750 5750 5750 5749 5749 5749 5749 5749 5749 5749 5749 5750 5750 5751 5751 5752 5752 5752 5751 5751 5750 5750 5749 5749 5749 5749 5748 5748
5763 5764 5763 5761 5759 5757 5755 5752 5751 5751 5751 5750 5750 5750 5750 5749 5748 5747 5746 5746 5746 5746 5746 5746 5746 5746 5746 5747 5748 5748 5748 5747 5748 5747 5746 5746 5746 5746 5745 5745 5744 5744 5743
5758 5760 5762 5761 5759 5757 5756 5752 5752 5751 5750 5750 5750 5749 5749 5748 5747 5745 5744 5744 5744 5743 5743 5743 5743 5743 5744 5744 5744 5744 5744 5744 5744 5742 5741 5742 5742 5742 5741 5740 5740 5739 5739
5757 5758 5760 5760 5759 5756 5754 5753 5751 5750 5750 5749 5749 5749 5748 5747 5745 5744 5742 5741 5741 5741 5741 5741 5740 5741 5742 5742 5741 5741 5741 5741 5740 5738 5737 5737 5738 5737 5737 5736 5735 5735 5734
5755 5756 5758 5759 5757 5756 5753 5752 5751 5749 5748 5748 5748 5748 5746 5745 5744 5743 5742 5740 5740 5739 5739 5739 5739 5739 5739 5739 5738 5738 5737 5737 5735 5733 5732 5733 5733 5732 5732 5731 5730 5730 5730
5753 5754 5756 5757 5756 5754 5752 5751 5750 5748 5747 5747 5746 5746 5745 5743 5742 5741 5740 5739 5738 5738 5737 5737 5736 5735 5735 5735 5734 5734 5733 5732 5731 5730 5728 5728 5728 5727 5727 5726 5725 5725 5725
5754 5753 5754 5754 5754 5752 5750 5749 5748 5747 5746 5745 5744 5744 5743 5742 5741 5739 5737 5736 5735 5735 5735 5733 5733 5732 5731 5730 5730 5729 5728 5727 5727 5726 5724 5723 5723 5723 5722 5721 5721 5720 5720
5755 5754 5752 5752 5752 5750 5748 5747 5746 5745 5744 5743 5742 5742 5741 5739 5738 5736 5734 5733 5732 5732 5731 5729 5728 5727 5726 5725 5724 5724 5724 5723 5722 5722 5721 5720 5719 5718 5717 5717 5716 5715 5715
5756 5753 5751 5751 5749 5748 5746 5745 5744 5743 5742 5740 5740 5739 5738 5736 5735 5732 5730 5729 5728 5727 5726 5724 5722 5720 5719 5718 5718 5718 5718 5718 5718 5717 5717 5716 5715 5713 5712 5712 5711 5710 5709
5756 5753 5750 5749 5747 5746 5744 5743 5742 5740 5739 5738 5737 5735 5734 5733 5731 5728 5726 5725 5724 5722 5721 5719 5716 5715 5712 5711 5711 5711 5712 5712 5713 5713 5712 5711 5710 5709 5708 5707 5706 5705 5704
5755 5753 5750 5748 5746 5744 5742 5741 5738 5736 5735 5734 5733 5731 5730 5729 5727 5724 5723 5721 5720 5717 5715 5713 5710 5709 5707 5706 5707 5705 5706 5706 5707 5707 5707 5707 5706 5705 5704 5703 5702 5701 5700
5751 5750 5748 5745 5744 5741 5738 5735 5731 5729 5730 5729 5729 5727 5726 5724 5723 5720 5718 5717 5715 5712 5710 5708 5705 5703 5701 5702 5698 5696 5698 5701 5701 5702 5703 5702 5702 5701 5701 5699 5698 5697 5696
5747 5747 5746 5744 5742 5740 5737 5735 5732 5729 5727 5726 5724 5723 5722 5720 5718 5717 5714 5712 5710 5707 5705 5703 5700 5697 5696 5696 5692 5687 5684 5686 5691 5696 5696 5696 5697 5697 5696 5696 5695 5693 5692
5744 5745 5745 5744 5742 5739 5736 5734 5730 5726 5723 5719 5718 5717 5718 5716 5714 5713 5711 5708 5706 5703 5700 5698 5696 5693 5689 5690 5690 5685 5678 5675 5679 5685 5689 5690 5690 5691 5691 5691 5690 5689 5688
5742 5744 5745 5743 5740 5738 5735 5730 5725 5719 5714 5714 5714 5713 5713 5712 5710 5708 5707 5704 5702 5699 5696 5695 5693 5691 5687 5683 5684 5684 5683 5679 5673 5672 5678 5682 5684 5685 5685 5686 5685 5685 5684
5742 5741 5741 5740 5738 5736 5732 5728 5723 5718 5715 5714 5712 5709 5708 5707 5706 5704 5702 5700 5697 5695 5693 5691 5689 5687 5684 5681 5678 5678 5677 5676 5675 5669 5666 5670 5674 5678 5680 5680 5680 5679 5679
5740 5738 5737 5735 5733 5733 5730 5726 5721 5716 5713 5709 5706 5703 5702 5701 5700 5699 5698 5695 5693 5691 5688 5686 5684 5682 5680 5678 5676 5674 5671 5669 5668 5666 5663 5663 5664 5669 5673 5675 5675 5674 5674